W6ZZY Weather Reports


Display with metric or nautical units.
time (UTC)temp
F
wind
direction
speed
MPH
gust
MPH
rain 1hr
in
rain 24hr
in
rain mn
in
humidity
%
barometer
mb
20260506145025 55 197 0.0 2.0 0.00 0.00 0.00 94 1023.2
20260506144043 54 204 1.0 2.0 0.00 0.00 0.00 94 1023.1
20260506143035 53 212 0.0 1.0 0.00 0.01 0.00 94 1023.2
20260506142029 53 0.0 0.0 0.00 0.01 0.00 94 1023.0
20260506141023 53 0.0 0.0 0.00 0.01 0.00 94 1022.9
20260506140038 53 0.0 0.0 0.00 0.01 0.00 94 1022.7
20260506135052 53 0.0 0.0 0.00 0.01 0.00 94 1022.6
20260506134027 53 0.0 0.0 0.00 0.01 0.00 94 1022.7
20260506133022 53 0.0 0.0 0.00 0.01 0.00 93 1022.6
20260506132017 53 0.0 0.0 0.00 0.01 0.00 93 1022.5
20260506131032 53 0.0 0.0 0.00 0.01 0.00 93 1022.5
20260506130027 53 0.0 0.0 0.00 0.01 0.00 92 1022.3
20260506125022 53 0.0 0.0 0.00 0.01 0.00 92 1022.4
20260506124017 53 0.0 0.0 0.00 0.01 0.00 92 1022.3
20260506123052 53 0.0 0.0 0.00 0.01 0.00 92 1022.3
20260506122026 53 0.0 0.0 0.00 0.01 0.00 92 1022.3
20260506121023 53 218 0.0 1.0 0.00 0.01 0.00 92 1022.2
20260506120015 53 0.0 0.0 0.00 0.01 0.00 92 1022.1
20260506115031 53 0.0 0.0 0.00 0.01 0.00 92 1022.1
20260506114025 53 239 0.0 1.0 0.00 0.01 0.00 92 1022.0
20260506113020 53 0.0 0.0 0.00 0.01 0.00 92 1022.0
20260506112055 53 210 0.0 1.0 0.00 0.01 0.00 92 1021.9
20260506111029 53 220 0.0 1.0 0.00 0.01 0.00 92 1021.8
20260506110024 53 0.0 0.0 0.00 0.01 0.00 92 1021.6
20260506105019 53 204 0.0 1.0 0.00 0.01 0.00 92 1021.8
20260506104033 53 0.0 0.0 0.00 0.01 0.00 92 1021.6
20260506103029 53 213 0.0 1.0 0.00 0.01 0.00 92 1021.7
20260506102044 53 0.0 0.0 0.00 0.01 0.00 92 1021.6
20260506101017 53 0.0 0.0 0.00 0.01 0.00 92 1021.6
20260506100032 53 182 0.0 1.0 0.00 0.01 0.00 92 1021.5
20260506095028 53 0.0 0.0 0.00 0.01 0.00 92 1021.7
20260506094022 53 182 0.0 1.0 0.00 0.01 0.00 92 1021.7
20260506093017 53 217 0.0 1.0 0.00 0.01 0.00 92 1021.7
20260506092032 53 253 0.0 1.0 0.00 0.01 0.00 92 1021.6
20260506091026 53 185 0.0 1.0 0.00 0.02 0.00 92 1021.7
20260506085016 53 0.0 0.0 0.00 0.03 0.00 92 1021.6
20260506084030 53 196 0.0 3.0 0.00 0.03 0.00 92 1021.5
20260506083025 53 181 0.0 2.0 0.00 0.03 0.00 92 1021.7
20260506082020 53 242 0.0 1.0 0.00 0.03 0.00 91 1021.7
20260506081055 53 176 0.0 1.0 0.00 0.03 0.00 91 1021.7
20260506073016 54 208 0.0 2.0 0.00 0.09 0.00 92 1021.4
20260506072031 54 213 0.0 2.0 0.00 0.10 0.00 92 1021.4
20260506071027 54 240 1.0 1.0 0.00 0.10 0.00 92 1021.3
20260506062027 54 179 0.0 2.0 0.00 0.12 0.11 93 1020.9
20260506061022 54 202 0.0 2.0 0.00 0.13 0.11 93 1020.8
20260506051030 53 184 1.0 3.0 0.00 0.19 0.11 95 1020.6
20260506045020 53 173 1.0 4.0 0.00 0.20 0.11 95 1020.4
20260506044035 53 162 0.0 2.0 0.00 0.21 0.11 95 1020.2
20260506043030 53 162 0.0 1.0 0.00 0.22 0.11 95 1020.3
20260506042024 53 172 0.0 1.0 0.00 0.22 0.11 94 1020.0
20260506041019 53 181 0.0 1.0 0.00 0.24 0.11 94 1020.0
20260506040034 53 210 0.0 1.0 0.00 0.24 0.11 94 1020.0
20260506035029 54 183 1.0 2.0 0.00 0.24 0.11 93 1019.9
20260506034047 54 196 1.0 1.0 0.00 0.24 0.11 93 1019.6
20260506033019 54 187 1.0 3.0 0.00 0.24 0.11 93 1019.5
20260506032054 54 157 1.0 3.0 0.00 0.25 0.11 93 1019.3
20260506031028 55 179 1.0 4.0 0.00 0.25 0.11 92 1019.1
20260506030021 55 156 1.0 2.0 0.00 0.25 0.11 92 1019.1
20260506025015 55 154 1.0 3.0 0.00 0.25 0.11 92 1019.0
20260506024052 56 163 1.0 4.0 0.00 0.25 0.11 92 1019.1
20260506023026 56 156 2.0 4.0 0.00 0.25 0.11 92 1019.0
20260506022020 56 173 2.0 6.0 0.00 0.25 0.11 92 1018.9
20260506021035 56 172 3.0 7.0 0.00 0.25 0.11 91 1018.7
20260506020031 56 214 2.0 7.0 0.00 0.25 0.11 90 1018.6
20260506015024 57 159 2.0 7.0 0.00 0.25 0.11 89 1018.5
20260506014039 57 175 3.0 7.0 0.00 0.25 0.11 89 1018.5
20260506013112 58 186 2.0 4.0 0.00 0.25 0.11 88 1018.5
20260506012028 58 168 2.0 6.0 0.00 0.25 0.11 88 1018.6
20260506011024 58 158 3.0 7.0 0.00 0.25 0.11 87 1018.6
20260506010019 59 144 2.0 6.0 0.00 0.25 0.11 87 1018.6
20260506005034 59 148 3.0 7.0 0.00 0.25 0.11 86 1018.4
20260506004029 59 156 1.0 3.0 0.00 0.25 0.11 86 1018.4
20260506003025 59 175 3.0 7.0 0.00 0.25 0.11 85 1018.3
20260506002020 59 155 2.0 7.0 0.00 0.25 0.11 86 1018.2
20260506001035 59 169 3.0 6.0 0.00 0.25 0.11 86 1018.2
20260506000028 59 166 3.0 6.0 0.00 0.25 0.11 88 1018.3
20260505235023 58 178 3.0 8.0 0.00 0.25 0.11 88 1018.3
20260505234017 58 211 2.0 8.0 0.00 0.25 0.11 89 1018.3
20260505233112 58 195 3.0 8.0 0.00 0.25 0.11 88 1018.3
20260505232045 59 187 2.0 3.0 0.00 0.25 0.11 89 1018.3
20260505231020 59 150 1.0 6.0 0.00 0.25 0.11 88 1018.3
20260505230035 59 181 3.0 4.0 0.00 0.25 0.11 87 1018.3
20260505225049 60 157 3.0 4.0 0.00 0.25 0.11 85 1018.2
20260505224103 61 118 2.0 4.0 0.00 0.25 0.11 84 1018.3
20260505223016 62 222 2.0 6.0 0.00 0.25 0.11 82 1018.3
20260505222051 62 191 3.0 9.0 0.00 0.25 0.11 81 1018.4
20260505221025 63 229 3.0 6.0 0.00 0.25 0.11 80 1018.3
20260505220020 63 206 3.0 7.0 0.00 0.25 0.11 80 1018.4
20260505215035 63 136 2.0 4.0 0.00 0.25 0.11 81 1018.4
20260505214030 64 175 3.0 8.0 0.00 0.25 0.11 80 1018.5
20260505213105 63 163 2.0 4.0 0.00 0.25 0.11 80 1018.7
20260505212019 63 130 1.0 2.0 0.00 0.25 0.11 82 1018.6
20260505211034 62 103 2.0 3.0 0.00 0.25 0.11 84 1018.6
20260505210049 60 154 2.0 3.0 0.00 0.25 0.11 86 1018.6
20260505205023 59 178 1.0 6.0 0.00 0.25 0.11 87 1018.7
20260505204018 59 208 2.0 3.0 0.00 0.25 0.11 87 1018.7
20260505203032 59 165 2.0 3.0 0.00 0.25 0.11 87 1018.6
20260505202026 59 221 2.0 6.0 0.00 0.25 0.11 86 1018.7
20260505201021 60 180 1.0 2.0 0.00 0.25 0.11 85 1018.7
20260505200015 60 177 1.0 2.0 0.00 0.25 0.11 84 1018.7
20260505195030 60 170 1.0 2.0 0.00 0.25 0.11 85 1018.6
20260505194023 60 174 2.0 3.0 0.00 0.25 0.11 86 1018.7
20260505193039 59 175 1.0 4.0 0.00 0.25 0.11 90 1018.9
20260505192033 58 164 2.0 4.0 0.00 0.25 0.11 91 1018.8
20260505191028 57 180 1.0 3.0 0.00 0.25 0.11 92 1018.7
20260505190024 57 151 1.0 4.0 0.00 0.25 0.11 91 1018.6
20260505185018 58 181 1.0 4.0 0.00 0.25 0.11 91 1018.5
20260505184033 58 174 1.0 2.0 0.00 0.25 0.11 93 1018.5
20260505183048 57 291 2.0 3.0 0.00 0.25 0.11 93 1018.6
20260505182023 57 243 1.0 2.0 0.00 0.25 0.11 95 1018.6
20260505181018 56 237 1.0 3.0 0.00 0.25 0.11 96 1018.6
20260505180032 56 203 1.0 2.0 0.00 0.25 0.11 98 1018.7
20260505175027 55 269 1.0 3.0 0.00 0.25 0.11 98 1018.3
20260505174022 55 164 0.0 1.0 0.00 0.25 0.11 98 1018.2
20260505173036 55 217 0.0 2.0 0.00 0.25 0.11 99 1018.2
20260505172032 56 151 1.0 3.0 0.00 0.25 0.11 99 1018.1
20260505171046 56 190 0.0 1.0 0.00 0.25 0.11 99 1018.3
20260505170021 55 195 0.0 2.0 0.00 0.25 0.11 99 1018.2
20260505165016 55 193 0.0 2.0 0.00 0.25 0.11 99 1018.1
20260505164031 54 162 0.0 1.0 0.00 0.25 0.11 99 1018.1
20260505163026 54 174 1.0 2.0 0.00 0.25 0.11 99 1018.2
20260505162020 54 172 0.0 1.0 0.00 0.25 0.11 99 1018.2
20260505161035 54 249 0.0 3.0 0.00 0.25 0.11 99 1018.0
20260505153053 53 175 1.0 3.0 0.01 0.25 0.11 99 1017.8
20260505152026 53 159 0.0 2.0 0.01 0.25 0.11 99 1017.7
20260505151021 52 211 0.0 2.0 0.01 0.25 0.11 99 1017.7